EN

Hourly Weather Lagoa do Itaenga

Today, 26 July, Monday

Time Temperature Precipitation Wind Pressure Humidity
00:00 +21°C° 0.3 mm 2 mps 748 mmHg 96%
01:00 +21°C° 0.3 mm 2 mps 748 mmHg 96%
02:00 +22°C° 0.4 mm 1 mps 747 mmHg 96%
03:00 +22°C° 0.4 mm 1 mps 747 mmHg 96%
04:00 +22°C° 0 mm 1 mps 747 mmHg 96%
05:00 +22°C° 0.3 mm 1 mps 747 mmHg 96%
06:00 +22°C° 0.3 mm 1 mps 747 mmHg 96%
07:00 +22°C° 0.3 mm 1 mps 747 mmHg 95%
08:00 +24°C° 0.2 mm 3 mps 748 mmHg 87%
09:00 +26°C° 0.2 mm 4 mps 748 mmHg 79%
10:00 +27°C° 0 mm 5 mps 748 mmHg 72%
11:00 +28°C° 0 mm 5 mps 748 mmHg 65%
12:00 +30°C° 0 mm 5 mps 748 mmHg 58%
13:00 +32°C° 0 mm 6 mps 747 mmHg 51%
14:00 +30°C° 0.1 mm 6 mps 747 mmHg 54%
15:00 +30°C° 0.1 mm 6 mps 746 mmHg 56%
16:00 +29°C° 0.1 mm 5 mps 746 mmHg 59%
17:00 +27°C° 0.1 mm 4 mps 746 mmHg 69%
18:00 +25°C° 0.1 mm 3 mps 747 mmHg 79%
19:00 +24°C° 0.1 mm 2 mps 747 mmHg 89%
20:00 +23°C° 0.1 mm 2 mps 747 mmHg 90%
21:00 +23°C° 0.1 mm 1 mps 748 mmHg 92%
22:00 +23°C° 0.1 mm 1 mps 748 mmHg 93%
23:00 +22°C° 0 mm 1 mps 748 mmHg 93%

Tomorrow, 27 July, Tuesday

Time Temperature Precipitation Wind Pressure Humidity
00:00 +22°C° 0 mm 1 mps 748 mmHg 94%
01:00 +22°C° 0 mm 1 mps 748 mmHg 94%
02:00 +22°C° 0.1 mm 1 mps 747 mmHg 95%
03:00 +22°C° 0.1 mm 1 mps 747 mmHg 95%
04:00 +22°C° 0.1 mm 1 mps 747 mmHg 95%
05:00 +22°C° 0.1 mm 1 mps 747 mmHg 95%
06:00 +22°C° 0.1 mm 1 mps 747 mmHg 95%
07:00 +22°C° 0.1 mm 1 mps 747 mmHg 95%
08:00 +24°C° 0.2 mm 2 mps 748 mmHg 88%
09:00 +26°C° 0.2 mm 2 mps 748 mmHg 81%
10:00 +27°C° 0.2 mm 3 mps 748 mmHg 74%
11:00 +29°C° 0 mm 3 mps 748 mmHg 66%
12:00 +30°C° 0 mm 4 mps 747 mmHg 58%
13:00 +32°C° 0 mm 4 mps 747 mmHg 51%
14:00 +32°C° 0 mm 4 mps 746 mmHg 52%
15:00 +32°C° 0 mm 5 mps 746 mmHg 53%
16:00 +30°C° 0 mm 5 mps 745 mmHg 54%
17:00 +28°C° 0 mm 4 mps 746 mmHg 64%
18:00 +26°C° 0 mm 3 mps 746 mmHg 73%
19:00 +24°C° 0 mm 3 mps 747 mmHg 83%
20:00 +24°C° 0 mm 2 mps 747 mmHg 86%
21:00 +23°C° 0 mm 2 mps 747 mmHg 88%
22:00 +23°C° 0 mm 2 mps 748 mmHg 91%
23:00 +23°C° 0 mm 2 mps 748 mmHg 91%

Day after tomorrow, 28 July, Wednesday

Time Temperature Precipitation Wind Pressure Humidity
00:00 +22°C° 0 mm 1 mps 747 mmHg 92%
01:00 +22°C° 0 mm 1 mps 747 mmHg 93%
02:00 +22°C° 0 mm 1 mps 747 mmHg 93%
03:00 +22°C° 0 mm 1 mps 746 mmHg 93%
04:00 +22°C° 0 mm 1 mps 746 mmHg 94%
05:00 +22°C° 0 mm 1 mps 746 mmHg 93%
06:00 +22°C° 0 mm 1 mps 746 mmHg 92%
07:00 +22°C° 0 mm 1 mps 747 mmHg 92%
08:00 +24°C° 0 mm 2 mps 747 mmHg 81%
09:00 +26°C° 0 mm 3 mps 748 mmHg 70%
10:00 +29°C° 0 mm 4 mps 748 mmHg 59%
11:00 +30°C° 0 mm 4 mps 748 mmHg 55%
12:00 +30°C° 0 mm 4 mps 747 mmHg 52%
13:00 +32°C° 0 mm 4 mps 747 mmHg 49%
14:00 +32°C° 0 mm 4 mps 746 mmHg 51%
15:00 +30°C° 0 mm 5 mps 746 mmHg 52%
16:00 +30°C° 0 mm 5 mps 745 mmHg 54%
17:00 +28°C° 0 mm 4 mps 746 mmHg 62%
18:00 +26°C° 0 mm 4 mps 746 mmHg 70%
19:00 +24°C° 0 mm 3 mps 746 mmHg 78%
20:00 +24°C° 0 mm 2 mps 747 mmHg 81%
21:00 +23°C° 0 mm 2 mps 747 mmHg 85%
22:00 +22°C° 0 mm 1 mps 747 mmHg 88%
23:00 +22°C° 0 mm 1 mps 747 mmHg 90%

29 July, Thursday

Time Temperature Precipitation Wind Pressure Humidity
00:00 +22°C° 0 mm 1 mps 747 mmHg 91%
01:00 +22°C° 0 mm 1 mps 747 mmHg 93%
02:00 +22°C° 0 mm 1 mps 747 mmHg 93%
03:00 +21°C° 0 mm 1 mps 746 mmHg 94%
04:00 +21°C° 0 mm 1 mps 746 mmHg 94%
05:00 +21°C° 0 mm 1 mps 747 mmHg 94%
06:00 +22°C° 0 mm 1 mps 747 mmHg 93%
07:00 +22°C° 0 mm 1 mps 747 mmHg 93%
08:00 +24°C° 0 mm 2 mps 747 mmHg 83%
09:00 +26°C° 0 mm 2 mps 748 mmHg 74%
10:00 +29°C° 0 mm 3 mps 748 mmHg 65%
11:00 +30°C° 0 mm 3 mps 747 mmHg 59%
12:00 +31°C° 0 mm 3 mps 747 mmHg 53%
13:00 +33°C° 0 mm 3 mps 746 mmHg 48%
14:00 +33°C° 0 mm 4 mps 746 mmHg 49%
15:00 +33°C° 0 mm 4 mps 746 mmHg 50%
16:00 +33°C° 0 mm 4 mps 745 mmHg 51%
17:00 +29°C° 0 mm 4 mps 746 mmHg 62%
18:00 +27°C° 0 mm 3 mps 746 mmHg 73%
19:00 +25°C° 0 mm 3 mps 746 mmHg 84%
20:00 +24°C° 0 mm 2 mps 747 mmHg 87%
21:00 +24°C° 0 mm 1 mps 747 mmHg 91%
22:00 +23°C° 0 mm 1 mps 748 mmHg 95%
23:00 +23°C° 0 mm 1 mps 748 mmHg 95%

30 July, Friday

Time Temperature Precipitation Wind Pressure Humidity
00:00 +23°C° 0 mm 1 mps 748 mmHg 95%
01:00 +23°C° 0 mm 1 mps 747 mmHg 95%
02:00 +23°C° 0.1 mm 1 mps 747 mmHg 95%
03:00 +23°C° 0.1 mm 1 mps 747 mmHg 95%
04:00 +23°C° 0.1 mm 1 mps 747 mmHg 95%
05:00 +23°C° 0 mm 1 mps 747 mmHg 95%
06:00 +23°C° 0 mm 1 mps 748 mmHg 96%
07:00 +23°C° 0 mm 1 mps 748 mmHg 96%
08:00 +25°C° 0 mm 3 mps 748 mmHg 86%
09:00 +27°C° 0 mm 4 mps 749 mmHg 76%
10:00 +29°C° 0 mm 5 mps 749 mmHg 66%
11:00 +30°C° 0 mm 5 mps 749 mmHg 60%
12:00 +32°C° 0 mm 6 mps 748 mmHg 54%
13:00 +33°C° 0 mm 6 mps 748 mmHg 48%
14:00 +32°C° 0 mm 6 mps 748 mmHg 49%
15:00 +32°C° 0 mm 6 mps 747 mmHg 49%
16:00 +30°C° 0 mm 6 mps 747 mmHg 50%
17:00 +28°C° 0 mm 5 mps 747 mmHg 60%
18:00 +26°C° 0 mm 4 mps 748 mmHg 70%
19:00 +24°C° 0 mm 3 mps 748 mmHg 80%
20:00 +24°C° 0 mm 3 mps 749 mmHg 85%
21:00 +22°C° 0 mm 3 mps 749 mmHg 89%
22:00 +21°C° 0 mm 2 mps 749 mmHg 94%
23:00 +21°C° 0 mm 2 mps 749 mmHg 94%

31 July, Saturday

Time Temperature Precipitation Wind Pressure Humidity
00:00 +21°C° 0 mm 2 mps 749 mmHg 95%
01:00 +21°C° 0 mm 2 mps 749 mmHg 95%
02:00 +21°C° 0 mm 2 mps 749 mmHg 95%
03:00 +21°C° 0 mm 3 mps 748 mmHg 95%
04:00 +21°C° 0 mm 3 mps 748 mmHg 95%
05:00 +21°C° 0.1 mm 3 mps 749 mmHg 95%
06:00 +21°C° 0.1 mm 2 mps 749 mmHg 95%
07:00 +21°C° 0.1 mm 2 mps 749 mmHg 95%
08:00 +24°C° 0.2 mm 3 mps 750 mmHg 86%
09:00 +26°C° 0.2 mm 5 mps 750 mmHg 77%
10:00 +28°C° 0.2 mm 6 mps 750 mmHg 68%
11:00 +29°C° 0 mm 6 mps 750 mmHg 61%
12:00 +30°C° 0 mm 7 mps 749 mmHg 54%
13:00 +32°C° 0 mm 7 mps 749 mmHg 46%
14:00 +30°C° 0 mm 7 mps 749 mmHg 49%
15:00 +30°C° 0 mm 7 mps 748 mmHg 51%
16:00 +29°C° 0 mm 7 mps 748 mmHg 54%
17:00 +27°C° 0 mm 6 mps 748 mmHg 62%
18:00 +26°C° 0 mm 5 mps 749 mmHg 71%
19:00 +23°C° 0 mm 4 mps 749 mmHg 79%
20:00 +24°C° 0.1 mm 3 mps 749 mmHg 84%
21:00 +22°C° 0.1 mm 3 mps 750 mmHg 89%
22:00 +21°C° 0.1 mm 2 mps 750 mmHg 94%
23:00 +21°C° 0.4 mm 2 mps 750 mmHg 95%
Show more